{"data":{"norad_id":60995,"epoch":"2026-05-25T01:03:11.740032Z","epoch_age_seconds":78077,"freshness":"FRESH","line1":"1 60995U 24158F   26145.04388588  .00000257  00000+0  69781-5 0  9990","line2":"2 60995  53.1600 265.1020 0001188  83.4296 276.6857 15.69713535 99578","mean_motion":15.69713535,"eccentricity":0.0001188,"inclination_deg":53.16,"raan_deg":265.102,"arg_perigee_deg":83.4296,"mean_anomaly_deg":276.6857,"bstar":6.9781e-6,"rev_number":9957,"period_min":91.736483625339,"perigee_km":358.9161776101,"apogee_km":360.51709163368,"semimajor_km":6737.8536346219,"source":"CELESTRAK","updated_at":"2026-05-25T13:38:19.323037Z"}}